Content
SEND FEEDBACK

Daily
Averages
Monthly
Summary
United Kingdom

LONDON, ENGLAND


Home > Europe > United Kingdom > England
Elevation: 203 feet     Latitude: 51 09N     Longitude: 000 11W

WEATHER
 
SELECT A DAY
Number of Records: 299,479;   Date Range: 7/1/96 - 12/19/14
 
SHARE

PRINT THIS DATA

[ ← Previous Day ]
WEATHER ALMANAC - FEBRUARY 25, 2013
[ Next Day → ]
[ °C ]   °F
Weather ElementAverageHighLow
Temperature37.3 °F39.2 °F (11:20 am)33.8 °F (1:20 am)
Dewpoint32.5 °F33.8 °F (10:20 am)28.4 °F (12:50 am)
Humidity83 %87 % (1:50 am)75 % (12:50 am)
Barometer30.30 in30.36 in (8:50 pm)30.24 in (12:50 am)
Wind Speed11.9 mph16.1 mph (10:50 pm)
Wind Gust27.6 mph (9:50 am)
Weather ElementAverage
Visibility5.1 mi
Wind DirectionENE (81.9 °)

Weather ElementTotal
Precipitation---
Heating Degree Days28.5 (Base 65)
Averaged from 47 records on February 25, 2013
WEATHER CONDITIONS BREAKOUT
WIND DIRECTION BREAKOUT
WEATHER BY HOUR - FEBRUARY 25, 2013
[ °C ]   °F
Local TimeTemperatureDewpointHumidityBarometerVisibilityWind DirectionWind SpeedGust SpeedPrecipitationEventsConditions
12:50 AM35.6 °F28.4 °F75 %30.24 in6.2 miNorth (360°)11.5 mphRain-SnowLight Rain
1:20 AM33.8 °F28.4 °F81 %30.24 in5.6 miNorth (350°)13.8 mphRain-SnowLight Rain
1:50 AM33.8 °F30.2 °F87 %30.24 in3.1 miNorth (350°)11.5 mphSnowLight Snow
2:20 AM33.8 °F30.2 °F87 %30.24 in3.7 miNorth (350°)11.5 mphRain-SnowLight Rain
2:50 AM33.8 °F30.2 °F87 %30.24 in3.1 miNorth (350°)10.4 mphRain-SnowLight Rain
3:20 AM33.8 °F30.2 °F87 %30.24 in3.1 miNNW (340°)9.2 mphRainRain
3:50 AM33.8 °F30.2 °F87 %30.24 in4.3 miNorth (360°)8.1 mphRain-SnowLight Rain
4:20 AM33.8 °F30.2 °F87 %30.24 in5.0 miNorth (360°)11.5 mphRainLight Rain
4:50 AM35.6 °F32.0 °F87 %30.24 in6.2 miNorth (10°)9.2 mphMostly Cloudy
5:20 AM35.6 °F32.0 °F87 %30.24 in6.2 miNorth (10°)10.4 mphMostly Cloudy
5:50 AM35.6 °F32.0 °F87 %30.27 in6.2 miNorth (10°)10.4 mphRainLight Rain
6:20 AM35.6 °F32.0 °F87 %30.27 in6.2 miNorth (10°)9.2 mphMostly Cloudy
6:50 AM35.6 °F32.0 °F87 %30.27 in6.2 miNNE (20°)10.4 mphMostly Cloudy
7:20 AM35.6 °F32.0 °F87 %30.30 in5.0 miNNE (20°)11.5 mphLight Drizzle
7:50 AM35.6 °F32.0 °F87 %30.30 in5.0 miNorth (10°)10.4 mphRainLight Rain
8:20 AM35.6 °F32.0 °F87 %30.30 in4.3 miNorth (10°)10.4 mph21.9 mphRainLight Rain
8:50 AM37.4 °F32.0 °F81 %30.30 in4.3 miNorth (360°)10.4 mphRainLight Rain
9:20 AM37.4 °F32.0 °F81 %30.30 in4.3 miNorth (10°)12.7 mphRainLight Rain
9:50 AM37.4 °F32.0 °F81 %30.30 in5.0 miNorth (10°)11.5 mph27.6 mphMostly Cloudy
10:20 AM37.4 °F33.8 °F87 %30.30 in4.3 miNorth (10°)11.5 mphRainLight Rain
10:50 AM37.4 °F33.8 °F87 %30.33 in5.6 miNorth (10°)12.7 mphMostly Cloudy
11:20 AM39.2 °F33.8 °F81 %30.33 in5.6 miNNE (20°)12.7 mph26.5 mphMostly Cloudy
11:50 AM39.2 °F32.0 °F75 %30.33 in5.6 miNNE (20°)12.7 mphMostly Cloudy
12:20 PM37.4 °F33.8 °F87 %30.33 in5.6 miVariable10.4 mph24.2 mphMostly Cloudy
12:50 PM39.2 °F32.0 °F75 %30.33 in6.2 miNNE (20°)10.4 mphMostly Cloudy
1:20 PM39.2 °F32.0 °F75 %30.33 in6.2 miNorth (10°)11.5 mphMostly Cloudy
1:50 PM39.2 °F32.0 °F75 %30.30 in6.2 miNorth (10°)11.5 mphMostly Cloudy
2:20 PM39.2 °F32.0 °F75 %30.30 in6.2 miNorth (10°)13.8 mphOvercast
2:50 PM39.2 °F33.8 °F81 %30.30 in6.2 miNNE (20°)12.7 mphOvercast
3:20 PM39.2 °F33.8 °F81 %30.33 in6.2 miNNE (20°)11.5 mphOvercast
3:50 PM39.2 °F33.8 °F81 %30.33 in5.6 miNorth (10°)11.5 mphOvercast
4:20 PM39.2 °F33.8 °F81 %30.33 in5.6 miNNE (20°)13.8 mphMostly Cloudy
4:50 PM39.2 °F33.8 °F81 %30.33 in6.2 miNNE (30°)15.0 mphMostly Cloudy
5:20 PM39.2 °F33.8 °F81 %30.33 in6.2 miNNE (20°)11.5 mphOvercast
5:50 PM39.2 °F33.8 °F81 %30.33 in5.6 miNNE (20°)13.8 mphOvercast
6:20 PM39.2 °F33.8 °F81 %30.33 in5.6 miNorth (10°)15.0 mphOvercast
6:50 PM39.2 °F33.8 °F81 %30.33 in5.6 miNNE (20°)9.2 mphOvercast
7:20 PM39.2 °F33.8 °F81 %30.33 in5.0 miNNE (20°)12.7 mphOvercast
7:50 PM39.2 °F33.8 °F81 %30.33 in5.0 miNNE (20°)15.0 mphRainLight Rain
8:20 PM39.2 °F33.8 °F81 %30.33 in4.3 miNNE (30°)15.0 mphOvercast
8:50 PM39.2 °F33.8 °F81 %30.36 in4.3 miNNE (30°)13.8 mphOvercast
9:20 PM39.2 °F33.8 °F81 %30.36 in3.7 miNNE (20°)11.5 mphOvercast
9:50 PM37.4 °F33.8 °F87 %30.33 in3.7 miNNE (20°)12.7 mphOvercast
10:20 PM37.4 °F33.8 °F87 %30.33 in3.1 miNNE (30°)11.5 mphHaze
10:50 PM37.4 °F33.8 °F87 %30.36 in4.3 miNE (40°)16.1 mphMostly Cloudy
11:20 PM37.4 °F33.8 °F87 %30.36 in4.3 miNNE (30°)13.8 mphMostly Cloudy
11:50 PM37.4 °F33.8 °F87 %30.36 in4.3 miNNE (30°)13.8 mphRainLight Rain
Hourly data recorded from EGKK, located miles away from London, England







STORIES FROM OUR PARTNERS